Houston Intercontinental, TX

10:25 PM CST on November 19, 2019 (GMT -0600)
George Bush Intercontinental-Houston Airport

Weather History for KIAH - October, 2019

Change the Weather History Date:

Monday, October 21, 2019

  Actual Average Record
Temperature  
Mean Temperature 70 °F 70 °F  
Max Temperature 81 °F 81 °F 93 °F (2004)
Min Temperature 60 °F 60 °F 33 °F (1976)
Degree Days  
Heating Degree Days 0 1  
Month to date heating degree days 5 10  
Since 1 July heating degree days 5 11  
Cooling Degree Days 6 6  
Month to date cooling degree days 239 174  
Year to date cooling degree days 3419 2999  
Growing Degree Days 20 (Base 50)    
Moisture  
Dew Point 64 °F    
Average Humidity 73    
Maximum Humidity 90    
Minimum Humidity 45    
Precipitation  
Precipitation 0.61 in 0.21 in 2.40 in (1890)
Month to date precipitation 2.26 3.84  
Year to date precipitation 46.13 39.83  
Sea Level Pressure  
Sea Level Pressure 29.81 in    
Wind  
Wind Speed 8 mph ()    
Max Wind Speed 26 mph    
Max Gust Speed 35 mph    
Visibility 8.7 miles    
Events Rain , Thunderstorm    
T = Trace of Precipitation, MM = Missing Value Source: Averaged Metar Reports

Daily Weather History Graph

Daily Weather History Graph

Search for Another Location

Airport or City:

Astronomy

Oct. 21, 2019 Rise Set
Actual Time 7:27 AM CDT 6:44 PM CDT
Civil Twilight 7:02 AM CDT 7:08 PM CDT
Nautical Twilight 6:34 AM CDT 7:36 PM CDT
Astronomical Twilight 6:07 AM CDT 8:04 PM CDT
Moon 12:11 AM CDT (10/21) 2:31 PM CDT (10/21)
Length of Visible Light 12h 05m
Length of Day
11h 17m
Waning Gibbous, 48% of the Moon is Illuminated
Oct 21
Waning Gibbous
Oct 27
New
Nov 4
First Quarter
Nov 12
Full
Nov 19
Last Quarter

Hourly Weather History & Observations

Time (CDT) Temp. Heat Index Dew Point Humidity Pressure Visibility Wind Dir Wind Speed Gust Speed Precip Events Conditions
12:53 AM 81.0 °F 86.7 °F 75.0 °F 82% 29.73 in 10.0 mi South 9.2 mph - N/A   Mostly Cloudy
1:39 AM 81.0 °F 86.7 °F 75.0 °F 82% 29.71 in 10.0 mi South 10.4 mph 19.6 mph N/A   Mostly Cloudy
1:53 AM 81.0 °F 86.7 °F 75.0 °F 82% 29.72 in 10.0 mi South 12.7 mph 18.4 mph N/A   Scattered Clouds
2:42 AM 81.0 °F 86.7 °F 75.0 °F 82% 29.72 in 10.0 mi South 5.8 mph - N/A   Mostly Cloudy
2:53 AM 81.0 °F 86.7 °F 75.0 °F 82% 29.71 in 10.0 mi South 6.9 mph - N/A   Mostly Cloudy
3:53 AM 80.1 °F 85.1 °F 75.0 °F 85% 29.69 in 10.0 mi South 5.8 mph - N/A   Mostly Cloudy
4:45 AM 80.1 °F 85.1 °F 75.0 °F 85% 29.69 in 10.0 mi South 5.8 mph - 0.00 in Rain Light Rain
4:53 AM 80.1 °F 85.1 °F 75.0 °F 85% 29.69 in 8.0 mi South 5.8 mph - 0.00 in Rain Light Rain
5:53 AM 79.0 °F - 75.0 °F 88% 29.70 in 10.0 mi SSW 4.6 mph - 0.06 in   Mostly Cloudy
6:43 AM 70.0 °F - 66.0 °F 87% 29.75 in 10.0 mi NNW 21.9 mph 32.2 mph 0.01 in Rain Heavy Rain
6:45 AM 69.1 °F - 64.9 °F 87% 29.75 in 2.0 mi NW 21.9 mph 32.2 mph 0.02 in Rain , Thunderstorm Heavy Thunderstorms and Rain
6:53 AM 68.0 °F - 64.9 °F 90% 29.77 in 0.8 mi NW 13.8 mph 29.9 mph 0.20 in Rain , Thunderstorm Heavy Thunderstorms and Rain
7:12 AM 68.0 °F - 64.9 °F 90% 29.76 in 2.0 mi NW 12.7 mph - 0.24 in Rain , Thunderstorm Heavy Thunderstorms and Rain
7:33 AM 68.0 °F - 64.9 °F 90% 29.74 in 4.0 mi NNW 6.9 mph - 0.33 in Rain , Thunderstorm Light Thunderstorms and Rain
7:48 AM 68.0 °F - 64.4 °F 88% 29.74 in 6.0 mi NNW 9.2 mph - 0.34 in Rain Light Rain
7:53 AM 68.0 °F - 64.9 °F 90% 29.75 in 6.0 mi NNW 8.1 mph - 0.34 in Rain Light Rain
8:53 AM 69.1 °F - 64.0 °F 84% 29.82 in 10.0 mi North 8.1 mph - 0.01 in Rain Light Rain
9:53 AM 69.1 °F - 64.0 °F 84% 29.83 in 10.0 mi North 8.1 mph - 0.00 in   Overcast
10:53 AM 71.1 °F - 63.0 °F 75% 29.87 in 10.0 mi North 12.7 mph 23.0 mph N/A   Mostly Cloudy
11:53 AM 73.0 °F - 60.1 °F 64% 29.87 in 10.0 mi NNE 12.7 mph - N/A   Scattered Clouds
12:53 PM 75.0 °F - 60.1 °F 60% 29.87 in 10.0 mi NNE 11.5 mph - N/A   Mostly Cloudy
1:53 PM 78.1 °F - 62.1 °F 58% 29.83 in 10.0 mi NE 6.9 mph - N/A   Scattered Clouds
2:53 PM 79.0 °F - 62.1 °F 56% 29.82 in 10.0 mi NNE 9.2 mph 17.3 mph N/A   Scattered Clouds
3:53 PM 79.0 °F - 57.9 °F 48% 29.82 in 10.0 mi North 9.2 mph - N/A   Scattered Clouds
4:53 PM 80.1 °F 80.6 °F 57.9 °F 47% 29.82 in 10.0 mi North 10.4 mph 25.3 mph N/A   Scattered Clouds
5:53 PM 78.1 °F - 55.9 °F 46% 29.84 in 10.0 mi NNW 8.1 mph - N/A   Scattered Clouds
7:53 PM 72.0 °F - 53.1 °F 51% 29.93 in 10.0 mi North 3.5 mph - N/A   Scattered Clouds
8:53 PM 69.1 °F - 53.1 °F 57% 29.96 in 10.0 mi NNW 5.8 mph - N/A   Scattered Clouds
9:53 PM 66.9 °F - 52.0 °F 59% 30.00 in 10.0 mi North 5.8 mph - N/A   Scattered Clouds
10:53 PM 64.9 °F - 50.0 °F 58% 30.03 in 10.0 mi NNW 9.2 mph - N/A   Scattered Clouds
11:53 PM 64.0 °F - 46.9 °F 54% 30.04 in 10.0 mi North 5.8 mph - N/A   Partly Cloudy